sat.trackr.live / text

‹ back to catalog

STARLINK-34807

NORAD 65028 · 2025-161P

PAYLOAD ACTIVE UNKNOWN

§ Identity

Operator
Country
US
Launch date
2025-07-30
Launch site
AFWTR
Launch vehicle
Mass (kg)
RCS (m²)

Purposes: comms

External: N2YO · Heavens-Above · Gunter

§ Orbital elements

Epoch: 2026-09-20T22:14:18.306528Z

Period
93.85 min
Inclination
53.1573°
Eccentricity
0.0000609
Mean motion
15.34412404 rev/d
Perigee alt
462.2 km
Apogee alt
463.1 km
Semi-major
6,840.8 km
B*
7.4954e-4
RAAN
103.6483°
Arg perigee
152.1896°
Mean anomaly
207.9140°
Rev number
6,527

§ Raw data

STARLINK-348071 65028U 25161P   26263.92660077  .00025043  00000+0  74954-3 0  99972 65028  53.1573 103.6483 0000609 152.1896 207.9140 15.34412404 65270

JSON: /api/v1/satellites/65028 · /tle

For live sub-satellite position, see the globe view (requires WebGL).

§ Visibility from observer

Set your observer location to see the next 7 days of passes ≥ 10°. The values pass through the URL so the page stays shareable.

No JS? Fill the form by hand. The geolocation button needs JavaScript.